UAE1212 OLBA-OMDB

Flight info

Callsign UAE1212
Flight time 2h 56m
Altitude 39000
Route LATEB DCT LOTAX DCT BASEM DCT ABBAS DCT SULAF DCT TAN DCT MODIK DCT RAPLU DCT PUSTO DCT SILBO DCT LOVEK DCT KODAV DCT ILMAP DCT ULDUR DCT SIDAD DCT DESLU DCT NANPI DCT ALNIN DCT IMDAT DCT DURSI DCT PEGET DCT EGMIT DCT LEVNA DCT ORSAR DCT GIBIB DCT EMOTA DCT VUTEB
Aircraft A20N/M-SDE2E3FGHIRWXY/LB1

Departure

Time 2026-05-08 14:11
Airport Beirut Rafic Hariri International Airport (OLBA)

Arrival

Time 2026-05-08 17:07
Airport Dubai International Airport (OMDB)
Time Latitude Longitude Altitude Speed Heading
2026-05-08 13:59 33.82261 35.49368 60 ft 0 kts 16°
2026-05-08 14:03 33.82257 35.49367 60 ft 1 kts 15°
2026-05-08 14:03 33.82249 35.49364 62 ft 1 kts 15°
2026-05-08 14:03 33.82241 35.49362 58 ft 1 kts 15°
2026-05-08 14:04 33.82234 35.49359 60 ft 1 kts 15°
2026-05-08 14:04 33.82226 35.49356 51 ft 1 kts 15°
2026-05-08 14:04 33.82218 35.49354 53 ft 1 kts 15°
2026-05-08 14:04 33.82201 35.49348 52 ft 5 kts 39°
2026-05-08 14:05 33.82186 35.49316 53 ft 4 kts 108°
2026-05-08 14:05 33.82187 35.49311 55 ft 0 kts 116°
2026-05-08 14:08 33.82184 35.49319 65 ft 7 kts 112°
2026-05-08 14:08 33.82149 35.49429 61 ft 18 kts 116°
2026-05-08 14:08 33.82073 35.49505 53 ft 14 kts 205°
2026-05-08 14:09 33.81987 35.49442 55 ft 16 kts 214°
2026-05-08 14:09 33.81875 35.49346 55 ft 24 kts 216°
2026-05-08 14:09 33.81727 35.49220 58 ft 28 kts 215°
2026-05-08 14:09 33.81562 35.49080 56 ft 30 kts 216°
2026-05-08 14:10 33.81391 35.48935 58 ft 31 kts 215°
2026-05-08 14:10 33.81222 35.48792 62 ft 25 kts 217°
2026-05-08 14:10 33.81248 35.48657 54 ft 11 kts 349°
2026-05-08 14:10 33.81335 35.48632 49 ft 31 kts 347°
2026-05-08 14:11 33.81832 35.48495 47 ft 113 kts 347°
2026-05-08 14:11 33.82831 35.48219 90 ft 173 kts 347°
2026-05-08 14:11 33.84069 35.47867 564 ft 198 kts 347°
2026-05-08 14:11 33.85505 35.47468 1191 ft 224 kts 348°
2026-05-08 14:12 33.87074 35.47074 1889 ft 241 kts 350°
2026-05-08 14:12 33.88785 35.46714 2668 ft 245 kts 352°
2026-05-08 14:12 33.90433 35.46449 3364 ft 241 kts 354°
2026-05-08 14:12 33.92156 35.46143 3967 ft 259 kts 351°
2026-05-08 14:13 33.93949 35.45624 4776 ft 269 kts 340°
2026-05-08 14:13 33.95718 35.44632 5558 ft 279 kts 329°
2026-05-08 14:13 33.97395 35.43477 6367 ft 286 kts 329°
2026-05-08 14:13 33.99148 35.42301 7288 ft 289 kts 329°
2026-05-08 14:14 34.00928 35.41114 8168 ft 293 kts 330°
2026-05-08 14:14 34.02704 35.39929 9037 ft 296 kts 330°
2026-05-08 14:14 34.04529 35.38709 9928 ft 300 kts 330°
2026-05-08 14:14 34.06394 35.37459 10548 ft 314 kts 330°
2026-05-08 14:15 34.08365 35.36138 10882 ft 336 kts 330°
2026-05-08 14:15 34.10614 35.35244 11365 ft 350 kts 352°
2026-05-08 14:15 34.13062 35.35059 12268 ft 351 kts 357°
2026-05-08 14:15 34.15526 35.35032 13134 ft 353 kts 358°
2026-05-08 14:16 34.17971 35.35038 13926 ft 356 kts 358°
2026-05-08 14:16 34.20473 35.35052 14628 ft 360 kts 358°
2026-05-08 14:16 34.22983 35.35067 15339 ft 363 kts 358°
2026-05-08 14:16 34.25521 35.35083 16052 ft 366 kts 358°
2026-05-08 14:17 34.28061 35.35099 16746 ft 369 kts 358°
2026-05-08 14:17 34.30648 35.35505 17403 ft 377 kts 14°
2026-05-08 14:17 34.33016 35.36870 18051 ft 386 kts 32°
2026-05-08 14:17 34.34766 35.38781 18559 ft 395 kts 48°
2026-05-08 14:18 34.36195 35.41580 19126 ft 402 kts 65°
2026-05-08 14:18 34.36925 35.44920 19682 ft 410 kts 83°
2026-05-08 14:18 34.36848 35.48288 20221 ft 416 kts 99°
2026-05-08 14:18 34.36042 35.51656 20733 ft 421 kts 110°
2026-05-08 14:19 34.34966 35.54973 21269 ft 425 kts 112°
2026-05-08 14:19 34.33840 35.58293 21799 ft 429 kts 112°
2026-05-08 14:19 34.32722 35.61633 22328 ft 433 kts 111°
2026-05-08 14:19 34.31674 35.64836 22823 ft 436 kts 111°
2026-05-08 14:20 34.30979 35.67044 23162 ft 439 kts 108°
2026-05-08 14:20 34.30216 35.70516 23650 ft 441 kts 99°
2026-05-08 14:20 34.29843 35.74203 24088 ft 443 kts 91°
2026-05-08 14:20 34.29734 35.77892 24530 ft 445 kts 90°
2026-05-08 14:21 34.29612 35.81613 24946 ft 449 kts 90°
2026-05-08 14:21 34.29476 35.85434 25387 ft 452 kts 90°
2026-05-08 14:21 34.29335 35.89217 25811 ft 455 kts 90°
2026-05-08 14:21 34.29190 35.93047 26186 ft 459 kts 89°
2026-05-08 14:22 34.29042 35.96937 26598 ft 462 kts 89°
2026-05-08 14:22 34.28900 36.00650 26940 ft 465 kts 89°
2026-05-08 14:22 34.28751 36.04518 27363 ft 468 kts 89°
2026-05-08 14:22 34.28599 36.08437 27731 ft 471 kts 89°
2026-05-08 14:23 34.28444 36.12399 28099 ft 474 kts 89°
2026-05-08 14:23 34.28296 36.16124 28411 ft 476 kts 89°
2026-05-08 14:23 34.28136 36.20126 28726 ft 479 kts 88°
2026-05-08 14:23 34.27977 36.24132 29036 ft 482 kts 88°
2026-05-08 14:24 34.27813 36.28200 29311 ft 485 kts 88°
2026-05-08 14:24 34.27646 36.32275 29580 ft 488 kts 88°
2026-05-08 14:24 34.27476 36.36404 29967 ft 489 kts 88°
2026-05-08 14:24 34.27306 36.40497 30248 ft 492 kts 88°
2026-05-08 14:25 34.27135 36.44592 30549 ft 494 kts 88°
2026-05-08 14:25 34.26968 36.48551 30855 ft 496 kts 87°
2026-05-08 14:25 34.26792 36.52691 31135 ft 498 kts 87°
2026-05-08 14:25 34.26617 36.56776 31516 ft 497 kts 87°
2026-05-08 14:26 34.26435 36.60926 31905 ft 496 kts 87°
2026-05-08 14:26 34.26233 36.65120 32317 ft 495 kts 87°
2026-05-08 14:26 34.26020 36.69250 32718 ft 495 kts 87°
2026-05-08 14:26 34.25796 36.73376 33093 ft 494 kts 87°
2026-05-08 14:27 34.25560 36.77500 33454 ft 493 kts 87°
2026-05-08 14:27 34.25310 36.81655 33813 ft 492 kts 87°
2026-05-08 14:27 34.25053 36.85761 34138 ft 492 kts 87°
2026-05-08 14:27 34.24795 36.89883 34421 ft 491 kts 87°
2026-05-08 14:28 34.24540 36.93976 34678 ft 492 kts 90°
2026-05-08 14:28 34.23848 36.98154 34923 ft 502 kts 103°
2026-05-08 14:28 34.22572 37.01904 35162 ft 509 kts 115°
2026-05-08 14:28 34.20650 37.05538 35408 ft 512 kts 121°
2026-05-08 14:29 34.18890 37.09223 35629 ft 506 kts 111°
2026-05-08 14:29 34.17538 37.12973 35863 ft 503 kts 108°
2026-05-08 14:29 34.16332 37.16586 36110 ft 502 kts 108°
2026-05-08 14:29 34.14960 37.20638 36379 ft 500 kts 109°
2026-05-08 14:30 34.13606 37.24497 36589 ft 501 kts 109°
2026-05-08 14:30 34.12224 37.28335 36811 ft 500 kts 110°
2026-05-08 14:30 34.10824 37.32165 37023 ft 500 kts 110°
2026-05-08 14:30 34.09408 37.36012 37220 ft 500 kts 110°
2026-05-08 14:31 34.08004 37.39817 37444 ft 499 kts 110°
2026-05-08 14:31 34.06581 37.43668 37650 ft 498 kts 110°
2026-05-08 14:31 34.05178 37.47466 37795 ft 498 kts 110°
2026-05-08 14:32 34.02351 37.55110 38150 ft 498 kts 111°
2026-05-08 14:32 34.00951 37.58887 38334 ft 497 kts 111°
2026-05-08 14:32 33.99542 37.62685 38473 ft 497 kts 111°
2026-05-08 14:32 33.98130 37.66485 38632 ft 497 kts 111°
2026-05-08 14:33 33.96746 37.70205 38746 ft 496 kts 111°
2026-05-08 14:33 33.95343 37.73973 38860 ft 496 kts 111°
2026-05-08 14:33 33.93924 37.77780 38973 ft 495 kts 111°
2026-05-08 14:33 33.92520 37.81544 38990 ft 495 kts 111°
2026-05-08 14:34 33.89783 37.88862 38987 ft 494 kts 111°
2026-05-08 14:34 33.86972 37.96365 38989 ft 493 kts 111°
2026-05-08 14:35 33.84153 38.03873 38988 ft 492 kts 112°
2026-05-08 14:35 33.81333 38.11363 38989 ft 492 kts 112°
2026-05-08 14:36 33.78507 38.18853 38985 ft 491 kts 112°
2026-05-08 14:36 33.75839 38.25910 38982 ft 490 kts 112°
2026-05-08 14:37 33.73024 38.33340 38980 ft 489 kts 112°
2026-05-08 14:37 33.70207 38.40756 38977 ft 488 kts 112°
2026-05-08 14:38 33.67384 38.48174 38980 ft 488 kts 112°
2026-05-08 14:38 33.64628 38.55397 38983 ft 487 kts 112°
2026-05-08 14:39 33.61812 38.62761 38982 ft 486 kts 113°
2026-05-08 14:39 33.59001 38.70100 38985 ft 486 kts 113°
2026-05-08 14:40 33.56185 38.77433 38990 ft 486 kts 113°
2026-05-08 14:40 33.53342 38.84821 38991 ft 485 kts 113°
2026-05-08 14:41 33.50516 38.92148 38993 ft 485 kts 114°
2026-05-08 14:41 33.47976 38.99614 38992 ft 482 kts 104°
2026-05-08 14:42 33.46751 39.07454 38992 ft 478 kts 91°
2026-05-08 14:42 33.46556 39.15381 38994 ft 476 kts 89°
2026-05-08 14:43 33.46392 39.23333 38995 ft 476 kts 89°
2026-05-08 14:43 33.46222 39.31026 38994 ft 476 kts 89°
2026-05-08 14:44 33.46043 39.38912 38997 ft 476 kts 89°
2026-05-08 14:44 33.45861 39.46675 39000 ft 476 kts 89°
2026-05-08 14:45 33.45668 39.54772 38999 ft 476 kts 89°
2026-05-08 14:45 33.45473 39.62689 39003 ft 476 kts 89°
2026-05-08 14:46 33.45275 39.70550 39002 ft 476 kts 90°
2026-05-08 14:46 33.45070 39.78475 39005 ft 476 kts 90°
2026-05-08 14:47 33.44861 39.86399 39004 ft 477 kts 90°
2026-05-08 14:47 33.44681 39.93042 39007 ft 477 kts 90°
2026-05-08 14:48 33.44462 40.00968 39003 ft 477 kts 90°
2026-05-08 14:48 33.44237 40.08925 39005 ft 478 kts 90°
2026-05-08 14:49 33.44007 40.16874 39009 ft 478 kts 90°
2026-05-08 14:49 33.43771 40.24843 39009 ft 478 kts 90°
2026-05-08 14:50 33.43535 40.32655 39008 ft 478 kts 91°
2026-05-08 14:50 33.43294 40.40438 39002 ft 476 kts 91°
2026-05-08 14:51 33.43041 40.48369 39008 ft 477 kts 91°
2026-05-08 14:51 33.42786 40.56301 39007 ft 476 kts 91°
2026-05-08 14:52 33.42397 40.68164 39007 ft 476 kts 91°
2026-05-08 14:53 33.42130 40.76099 39007 ft 476 kts 91°
2026-05-08 14:53 33.41859 40.84015 39012 ft 476 kts 92°
2026-05-08 14:54 33.41589 40.91739 39014 ft 476 kts 92°
2026-05-08 14:54 33.41308 40.99635 39014 ft 476 kts 92°
2026-05-08 14:55 33.41022 41.07554 39015 ft 476 kts 92°
2026-05-08 14:55 33.40729 41.15507 39017 ft 475 kts 92°
2026-05-08 14:56 33.40435 41.23354 39015 ft 475 kts 93°
2026-05-08 14:56 33.40138 41.31149 39014 ft 475 kts 93°
2026-05-08 14:57 33.39832 41.39053 39015 ft 475 kts 93°
2026-05-08 14:57 33.39519 41.46984 39014 ft 475 kts 93°
2026-05-08 14:58 33.39203 41.54876 39015 ft 475 kts 94°
2026-05-08 14:58 33.38884 41.62738 39012 ft 475 kts 94°
2026-05-08 14:59 33.38558 41.70646 39013 ft 474 kts 94°
2026-05-08 14:59 33.38117 41.82468 39015 ft 475 kts 93°
2026-05-08 15:00 33.37895 41.90334 39017 ft 474 kts 93°
2026-05-08 15:00 33.37657 41.98211 39015 ft 475 kts 94°
2026-05-08 15:01 33.37408 42.06100 39009 ft 475 kts 94°
2026-05-08 15:01 33.37152 42.14000 39006 ft 475 kts 94°
2026-05-08 15:02 33.36895 42.21768 38999 ft 475 kts 94°
2026-05-08 15:02 33.36628 42.29710 38996 ft 476 kts 94°
2026-05-08 15:03 33.36360 42.37537 38996 ft 476 kts 95°
2026-05-08 15:03 33.36084 42.45451 38994 ft 476 kts 95°
2026-05-08 15:04 33.35803 42.53348 38989 ft 477 kts 95°
2026-05-08 15:04 33.35517 42.61241 38986 ft 477 kts 95°
2026-05-08 15:05 33.35165 42.69216 38985 ft 476 kts 100°
2026-05-08 15:05 33.33631 42.76824 38987 ft 469 kts 115°
2026-05-08 15:06 33.30748 42.83573 38996 ft 462 kts 126°
2026-05-08 15:06 33.27747 42.89591 38993 ft 463 kts 125°
2026-05-08 15:07 33.24465 42.96219 38997 ft 464 kts 125°
2026-05-08 15:07 33.21156 43.02870 38991 ft 463 kts 126°
2026-05-08 15:08 33.18461 43.08272 38993 ft 462 kts 126°
2026-05-08 15:08 33.14613 43.15960 38989 ft 463 kts 126°
2026-05-08 15:09 33.11302 43.22568 38991 ft 464 kts 126°
2026-05-08 15:09 33.07993 43.29160 38987 ft 463 kts 127°
2026-05-08 15:10 33.04666 43.35779 38988 ft 463 kts 127°
2026-05-08 15:10 33.01449 43.42166 38990 ft 462 kts 127°
2026-05-08 15:11 32.98143 43.48716 38986 ft 461 kts 127°
2026-05-08 15:11 32.94820 43.55226 38984 ft 460 kts 128°
2026-05-08 15:12 32.91490 43.61712 38981 ft 459 kts 128°
2026-05-08 15:12 32.88157 43.68202 38982 ft 459 kts 128°
2026-05-08 15:13 32.84848 43.74641 38975 ft 458 kts 128°
2026-05-08 15:13 32.81608 43.80933 38970 ft 458 kts 128°
2026-05-08 15:14 32.78312 43.87323 38974 ft 458 kts 128°
2026-05-08 15:14 32.74978 43.93773 38969 ft 458 kts 128°
2026-05-08 15:15 32.71644 44.00214 38972 ft 458 kts 129°
2026-05-08 15:15 32.68314 44.06636 38969 ft 457 kts 129°
2026-05-08 15:16 32.64967 44.13080 38969 ft 457 kts 129°
2026-05-08 15:16 32.61629 44.19493 38970 ft 457 kts 129°
2026-05-08 15:17 32.58276 44.25926 38970 ft 457 kts 129°
2026-05-08 15:17 32.54928 44.32338 38971 ft 457 kts 130°
2026-05-08 15:18 32.51602 44.38697 38976 ft 457 kts 130°
2026-05-08 15:18 32.48230 44.45133 38973 ft 457 kts 130°
2026-05-08 15:19 32.45005 44.51281 38980 ft 457 kts 130°
2026-05-08 15:19 32.41648 44.57666 38973 ft 457 kts 130°
2026-05-08 15:20 32.38329 44.63970 38973 ft 457 kts 131°
2026-05-08 15:20 32.35225 44.70499 38965 ft 463 kts 126°
2026-05-08 15:21 32.32275 44.77323 38966 ft 463 kts 126°
2026-05-08 15:21 32.29412 44.83908 38946 ft 463 kts 127°
2026-05-08 15:22 32.26461 44.90677 38953 ft 463 kts 127°
2026-05-08 15:22 32.23532 44.97379 38956 ft 463 kts 127°
2026-05-08 15:23 32.20563 45.04162 38957 ft 464 kts 127°
2026-05-08 15:23 32.17597 45.10923 38957 ft 464 kts 128°
2026-05-08 15:24 32.14644 45.17644 38959 ft 465 kts 128°
2026-05-08 15:24 32.11657 45.24429 38963 ft 465 kts 128°
2026-05-08 15:25 32.08657 45.31230 38974 ft 466 kts 129°
2026-05-08 15:25 32.05663 45.38006 38977 ft 467 kts 129°
2026-05-08 15:26 32.02662 45.44783 38980 ft 467 kts 129°
2026-05-08 15:26 31.99703 45.51457 38986 ft 467 kts 129°
2026-05-08 15:27 31.97187 45.57120 38980 ft 467 kts 130°
2026-05-08 15:27 31.94286 45.63643 38980 ft 466 kts 130°
2026-05-08 15:28 31.91262 45.70423 38981 ft 466 kts 130°
2026-05-08 15:28 31.88242 45.77182 38984 ft 466 kts 130°
2026-05-08 15:29 31.85224 45.83926 38988 ft 466 kts 130°
2026-05-08 15:29 31.82200 45.90670 38992 ft 467 kts 130°
2026-05-08 15:30 31.79182 45.97389 38990 ft 467 kts 130°
2026-05-08 15:30 31.76150 46.04126 38991 ft 467 kts 130°
2026-05-08 15:31 31.73121 46.10912 38989 ft 469 kts 130°
2026-05-08 15:31 31.70148 46.17736 38987 ft 469 kts 130°
2026-05-08 15:32 31.67166 46.24557 38981 ft 469 kts 130°
2026-05-08 15:32 31.64201 46.31307 38979 ft 469 kts 130°
2026-05-08 15:33 31.61293 46.37910 38972 ft 470 kts 130°
2026-05-08 15:33 31.58293 46.44712 38974 ft 470 kts 130°
2026-05-08 15:34 31.55278 46.51534 38966 ft 470 kts 130°
2026-05-08 15:34 31.52276 46.58316 38960 ft 470 kts 130°
2026-05-08 15:35 31.49254 46.65129 38963 ft 469 kts 130°
2026-05-08 15:35 31.46282 46.71818 38958 ft 469 kts 130°
2026-05-08 15:36 31.43283 46.78555 38957 ft 468 kts 130°
2026-05-08 15:36 31.40263 46.85327 38956 ft 468 kts 130°
2026-05-08 15:37 31.37116 46.91924 38955 ft 457 kts 137°
2026-05-08 15:37 31.33295 46.97648 38948 ft 439 kts 146°
2026-05-08 15:38 31.28979 47.02434 38944 ft 428 kts 151°
2026-05-08 15:38 31.24585 47.07084 38939 ft 429 kts 151°
2026-05-08 15:39 31.20175 47.11768 38946 ft 428 kts 151°
2026-05-08 15:39 31.15818 47.16386 38944 ft 428 kts 151°
2026-05-08 15:40 31.11407 47.21053 38943 ft 427 kts 151°
2026-05-08 15:40 31.07015 47.25693 38940 ft 426 kts 152°
2026-05-08 15:41 31.02644 47.30306 38930 ft 424 kts 152°
2026-05-08 15:41 30.98273 47.34912 38936 ft 422 kts 152°
2026-05-08 15:42 30.93932 47.39479 38928 ft 422 kts 152°
2026-05-08 15:42 30.89623 47.44008 38925 ft 421 kts 152°
2026-05-08 15:43 30.85246 47.48603 38924 ft 421 kts 152°
2026-05-08 15:43 30.80885 47.53173 38921 ft 421 kts 152°
2026-05-08 15:44 30.76531 47.57723 38920 ft 421 kts 153°
2026-05-08 15:44 30.72203 47.62244 38917 ft 421 kts 153°
2026-05-08 15:45 30.67853 47.66781 38912 ft 421 kts 153°
2026-05-08 15:45 30.63501 47.71315 38912 ft 421 kts 153°
2026-05-08 15:46 30.59237 47.75752 38909 ft 421 kts 153°
2026-05-08 15:46 30.54875 47.80283 38908 ft 421 kts 153°
2026-05-08 15:47 30.50599 47.84721 38911 ft 420 kts 153°
2026-05-08 15:47 30.46231 47.89248 38908 ft 420 kts 153°
2026-05-08 15:48 30.39685 47.96023 38878 ft 421 kts 153°
2026-05-08 15:49 30.35308 48.00545 38880 ft 420 kts 153°
2026-05-08 15:49 30.31105 48.04883 38878 ft 420 kts 153°
2026-05-08 15:50 30.26704 48.09420 38865 ft 419 kts 153°
2026-05-08 15:50 30.22370 48.13882 38868 ft 418 kts 153°
2026-05-08 15:51 30.18045 48.18326 38873 ft 418 kts 153°
2026-05-08 15:51 30.13684 48.22805 38875 ft 418 kts 153°
2026-05-08 15:52 30.09352 48.27248 38882 ft 418 kts 153°
2026-05-08 15:52 30.04990 48.31716 38885 ft 419 kts 153°
2026-05-08 15:53 30.00621 48.36185 38886 ft 419 kts 153°
2026-05-08 15:53 29.96383 48.40514 38883 ft 419 kts 153°
2026-05-08 15:54 29.92038 48.44944 38880 ft 420 kts 152°
2026-05-08 15:54 29.87684 48.49458 38876 ft 426 kts 149°
2026-05-08 15:55 29.83654 48.54613 38873 ft 436 kts 145°
2026-05-08 15:55 29.77662 48.62523 38872 ft 437 kts 145°
2026-05-08 15:56 29.73650 48.67793 38871 ft 439 kts 145°
2026-05-08 15:56 29.69614 48.73083 38873 ft 441 kts 145°
2026-05-08 15:57 29.65614 48.78321 38869 ft 443 kts 145°
2026-05-08 15:57 29.61532 48.83659 38882 ft 445 kts 144°
2026-05-08 15:58 29.57443 48.89001 38877 ft 447 kts 144°
2026-05-08 15:58 29.53325 48.94373 38879 ft 449 kts 144°
2026-05-08 15:59 29.49213 48.99729 38884 ft 450 kts 144°
2026-05-08 15:59 29.45075 49.05118 38891 ft 453 kts 144°
2026-05-08 16:00 29.40966 49.10519 38887 ft 454 kts 144°
2026-05-08 16:00 29.36805 49.15989 38884 ft 453 kts 144°
2026-05-08 16:01 29.32651 49.21430 38882 ft 454 kts 144°
2026-05-08 16:01 29.28771 49.26505 38880 ft 454 kts 144°
2026-05-08 16:02 29.24625 49.31920 38886 ft 455 kts 144°
2026-05-08 16:02 29.20435 49.37385 38884 ft 457 kts 144°
2026-05-08 16:03 29.16245 49.42844 38886 ft 457 kts 144°
2026-05-08 16:03 29.12034 49.48322 38884 ft 458 kts 144°
2026-05-08 16:04 29.07833 49.53782 38886 ft 459 kts 144°
2026-05-08 16:04 29.03516 49.59107 38884 ft 456 kts 146°
2026-05-08 16:05 28.99156 49.64368 38884 ft 457 kts 146°
2026-05-08 16:05 28.94811 49.69647 38885 ft 457 kts 146°
2026-05-08 16:06 28.90459 49.74944 38882 ft 458 kts 146°
2026-05-08 16:06 28.86084 49.80264 38889 ft 459 kts 145°
2026-05-08 16:07 28.81703 49.85584 38885 ft 460 kts 145°
2026-05-08 16:07 28.77385 49.90820 38891 ft 461 kts 145°
2026-05-08 16:08 28.72991 49.96142 38887 ft 461 kts 145°
2026-05-08 16:08 28.68603 50.01452 38884 ft 459 kts 145°
2026-05-08 16:09 28.65040 50.05754 38885 ft 460 kts 145°
2026-05-08 16:09 28.60013 50.11818 38885 ft 459 kts 145°
2026-05-08 16:10 28.56393 50.16177 38882 ft 459 kts 145°
2026-05-08 16:10 28.51956 50.21460 38887 ft 457 kts 146°
2026-05-08 16:11 28.47542 50.26608 38893 ft 456 kts 146°
2026-05-08 16:11 28.43109 50.31784 38881 ft 456 kts 146°
2026-05-08 16:12 28.38713 50.36919 38878 ft 455 kts 145°
2026-05-08 16:12 28.34296 50.42077 38887 ft 455 kts 145°
2026-05-08 16:13 28.30104 50.46965 38891 ft 454 kts 145°
2026-05-08 16:13 28.25718 50.52073 38887 ft 454 kts 145°
2026-05-08 16:14 28.21315 50.57193 38889 ft 454 kts 145°
2026-05-08 16:14 28.16899 50.62323 38885 ft 453 kts 145°
2026-05-08 16:15 28.12575 50.67340 38883 ft 453 kts 144°
2026-05-08 16:15 28.08155 50.72461 38884 ft 453 kts 144°
2026-05-08 16:16 28.03731 50.77581 38883 ft 453 kts 144°
2026-05-08 16:16 27.99345 50.82650 38886 ft 453 kts 144°
2026-05-08 16:17 27.94937 50.87739 38889 ft 453 kts 144°
2026-05-08 16:17 27.90521 50.92831 38887 ft 453 kts 144°
2026-05-08 16:18 27.86074 50.97952 38888 ft 454 kts 144°
2026-05-08 16:18 27.81658 51.03030 38887 ft 454 kts 144°
2026-05-08 16:19 27.77217 51.08132 38890 ft 454 kts 144°
2026-05-08 16:19 27.72811 51.13187 38884 ft 454 kts 143°
2026-05-08 16:20 27.68492 51.18444 38884 ft 461 kts 137°
2026-05-08 16:20 27.64857 51.24483 38877 ft 469 kts 130°
2026-05-08 16:21 27.61520 51.30466 38879 ft 468 kts 131°
2026-05-08 16:21 27.58066 51.36613 38881 ft 468 kts 130°
2026-05-08 16:22 27.54579 51.42809 38878 ft 467 kts 130°
2026-05-08 16:22 27.51119 51.48950 38869 ft 467 kts 130°
2026-05-08 16:23 27.47645 51.55107 38864 ft 467 kts 130°
2026-05-08 16:23 27.44204 51.61196 38855 ft 466 kts 130°
2026-05-08 16:24 27.40748 51.67305 38860 ft 466 kts 130°
2026-05-08 16:24 27.37268 51.73447 38851 ft 465 kts 130°
2026-05-08 16:25 27.33789 51.79577 38850 ft 465 kts 130°
2026-05-08 16:25 27.30298 51.85720 38844 ft 465 kts 130°
2026-05-08 16:26 27.26825 51.91824 38836 ft 465 kts 130°
2026-05-08 16:26 27.23382 51.97867 38825 ft 465 kts 130°
2026-05-08 16:27 27.19872 52.04021 38824 ft 465 kts 130°
2026-05-08 16:27 27.16389 52.10106 38813 ft 466 kts 130°
2026-05-08 16:28 27.12882 52.16220 38811 ft 466 kts 130°
2026-05-08 16:28 27.09360 52.22356 38817 ft 467 kts 130°
2026-05-08 16:29 27.05838 52.28481 38816 ft 468 kts 130°
2026-05-08 16:29 27.02321 52.34583 38821 ft 469 kts 130°
2026-05-08 16:30 26.98787 52.40707 38821 ft 469 kts 130°
2026-05-08 16:30 26.95243 52.46841 38823 ft 470 kts 130°
2026-05-08 16:31 26.91679 52.53000 38825 ft 471 kts 130°
2026-05-08 16:31 26.88154 52.59085 38811 ft 469 kts 129°
2026-05-08 16:32 26.84610 52.65194 38811 ft 470 kts 129°
2026-05-08 16:32 26.81037 52.71343 38806 ft 470 kts 129°
2026-05-08 16:33 26.77469 52.77475 38808 ft 471 kts 129°
2026-05-08 16:33 26.73895 52.83611 38797 ft 471 kts 129°
2026-05-08 16:34 26.70317 52.89742 38789 ft 471 kts 129°
2026-05-08 16:34 26.66845 52.95693 38796 ft 472 kts 129°
2026-05-08 16:35 26.63327 53.01703 38795 ft 472 kts 129°
2026-05-08 16:35 26.59736 53.07831 38791 ft 472 kts 129°
2026-05-08 16:36 26.56137 53.13967 38787 ft 473 kts 129°
2026-05-08 16:36 26.52518 53.20118 38797 ft 473 kts 129°
2026-05-08 16:37 26.48909 53.26235 38794 ft 474 kts 129°
2026-05-08 16:37 26.45274 53.32392 38795 ft 474 kts 129°
2026-05-08 16:38 26.41644 53.38531 38795 ft 474 kts 129°
2026-05-08 16:38 26.38027 53.44643 38721 ft 471 kts 129°
2026-05-08 16:39 26.36221 53.47692 38328 ft 469 kts 129°
2026-05-08 16:39 26.34426 53.50717 37587 ft 471 kts 129°
2026-05-08 16:39 26.32607 53.53777 36640 ft 477 kts 129°
2026-05-08 16:39 26.31271 53.56023 35917 ft 483 kts 129°
2026-05-08 16:40 26.29402 53.59162 35036 ft 488 kts 128°
2026-05-08 16:40 26.27603 53.62181 34265 ft 491 kts 128°
2026-05-08 16:40 26.25691 53.65392 33448 ft 493 kts 128°
2026-05-08 16:40 26.23811 53.68546 32643 ft 494 kts 128°
2026-05-08 16:41 26.21901 53.71749 31827 ft 494 kts 128°
2026-05-08 16:41 26.19992 53.74947 31000 ft 495 kts 128°
2026-05-08 16:41 26.18223 53.77908 30240 ft 496 kts 128°
2026-05-08 16:42 26.14405 53.84289 28447 ft 495 kts 127°
2026-05-08 16:42 26.12522 53.87432 27558 ft 494 kts 127°
2026-05-08 16:42 26.10593 53.90651 26612 ft 494 kts 127°
2026-05-08 16:42 26.08706 53.93797 25707 ft 493 kts 126°
2026-05-08 16:43 26.06895 53.97056 25155 ft 485 kts 121°
2026-05-08 16:43 26.05365 54.00307 24919 ft 469 kts 120°
2026-05-08 16:43 26.03890 54.03430 24807 ft 451 kts 120°
2026-05-08 16:43 26.02438 54.06487 24792 ft 431 kts 120°
2026-05-08 16:44 26.01016 54.09465 24791 ft 434 kts 120°
2026-05-08 16:44 25.99597 54.12429 24790 ft 438 kts 120°
2026-05-08 16:44 25.98174 54.15409 24788 ft 437 kts 120°
2026-05-08 16:44 25.96758 54.18377 24790 ft 437 kts 120°
2026-05-08 16:45 25.95311 54.21412 24782 ft 437 kts 120°
2026-05-08 16:45 25.93908 54.24363 24747 ft 433 kts 121°
2026-05-08 16:45 25.92519 54.27281 24449 ft 429 kts 120°
2026-05-08 16:45 25.91306 54.30331 23872 ft 431 kts 113°
2026-05-08 16:46 25.90367 54.33319 23029 ft 437 kts 111°
2026-05-08 16:46 25.89358 54.36550 21933 ft 442 kts 111°
2026-05-08 16:46 25.88225 54.39788 20768 ft 448 kts 116°
2026-05-08 16:46 25.86746 54.42840 19559 ft 453 kts 123°
2026-05-08 16:47 25.85023 54.45761 18694 ft 452 kts 124°
2026-05-08 16:47 25.83305 54.48690 17974 ft 446 kts 124°
2026-05-08 16:47 25.81626 54.51567 17150 ft 440 kts 124°
2026-05-08 16:47 25.79977 54.54396 16337 ft 435 kts 124°
2026-05-08 16:48 25.78359 54.57169 15548 ft 431 kts 124°
2026-05-08 16:48 25.76705 54.60000 14783 ft 426 kts 124°
2026-05-08 16:48 25.75636 54.61828 14279 ft 422 kts 125°
2026-05-08 16:48 25.74030 54.64572 13545 ft 418 kts 125°
2026-05-08 16:49 25.72467 54.67245 12689 ft 413 kts 125°
2026-05-08 16:49 25.70908 54.69906 11847 ft 411 kts 125°
2026-05-08 16:49 25.68862 54.73394 10773 ft 408 kts 125°
2026-05-08 16:49 25.67513 54.75689 10202 ft 403 kts 125°
2026-05-08 16:50 25.66490 54.77432 9973 ft 393 kts 125°
2026-05-08 16:50 25.65149 54.79716 9825 ft 377 kts 125°
2026-05-08 16:50 25.63767 54.82073 9763 ft 358 kts 125°
2026-05-08 16:50 25.62433 54.84344 9759 ft 338 kts 125°
2026-05-08 16:51 25.61232 54.86493 9757 ft 321 kts 120°
2026-05-08 16:51 25.60332 54.88700 9759 ft 305 kts 115°
2026-05-08 16:51 25.59522 54.90813 9764 ft 301 kts 115°
2026-05-08 16:51 25.58677 54.92983 9761 ft 303 kts 116°
2026-05-08 16:52 25.57846 54.95111 9761 ft 302 kts 115°
2026-05-08 16:52 25.57018 54.97230 9755 ft 302 kts 116°
2026-05-08 16:52 25.56181 54.99371 9757 ft 302 kts 115°
2026-05-08 16:52 25.55352 55.01494 9759 ft 302 kts 115°
2026-05-08 16:53 25.53462 55.05626 9758 ft 300 kts 122°
2026-05-08 16:53 25.52410 55.07640 9753 ft 300 kts 122°
2026-05-08 16:53 25.51373 55.09637 9756 ft 300 kts 122°
2026-05-08 16:54 25.50341 55.11627 9751 ft 300 kts 122°
2026-05-08 16:54 25.49288 55.13657 9751 ft 300 kts 122°
2026-05-08 16:54 25.48257 55.15644 9749 ft 300 kts 122°
2026-05-08 16:54 25.47218 55.17643 9746 ft 301 kts 122°
2026-05-08 16:55 25.46227 55.19513 9746 ft 300 kts 126°
2026-05-08 16:55 25.45238 55.20937 9747 ft 298 kts 134°
2026-05-08 16:55 25.43953 55.22466 9746 ft 298 kts 135°
2026-05-08 16:55 25.42527 55.24195 9737 ft 297 kts 134°
2026-05-08 16:56 25.41202 55.25823 9690 ft 291 kts 134°
2026-05-08 16:56 25.39852 55.27484 9296 ft 292 kts 134°
2026-05-08 16:56 25.38472 55.29179 8657 ft 301 kts 134°
2026-05-08 16:56 25.37037 55.30938 7918 ft 311 kts 133°
2026-05-08 16:57 25.35434 55.32603 7144 ft 320 kts 143°
2026-05-08 16:57 25.33544 55.33908 6393 ft 328 kts 153°
2026-05-08 16:57 25.31562 55.35037 6004 ft 324 kts 153°
2026-05-08 16:57 25.29920 55.35992 5833 ft 314 kts 152°
2026-05-08 16:58 25.28027 55.37103 5746 ft 299 kts 152°
2026-05-08 16:58 25.26238 55.38154 5708 ft 283 kts 152°
2026-05-08 16:58 25.24494 55.39179 5147 ft 290 kts 153°
2026-05-08 16:58 25.22694 55.40235 4476 ft 300 kts 153°
2026-05-08 16:59 25.20823 55.41333 3696 ft 312 kts 153°
2026-05-08 16:59 25.18839 55.42497 2813 ft 326 kts 153°
2026-05-08 16:59 25.16840 55.43669 2211 ft 329 kts 154°
2026-05-08 16:59 25.14840 55.44841 1924 ft 320 kts 154°
2026-05-08 17:00 25.12906 55.45975 1788 ft 306 kts 153°
2026-05-08 17:00 25.11225 55.47328 1754 ft 290 kts 136°
2026-05-08 17:00 25.10118 55.48897 1750 ft 261 kts 121°
2026-05-08 17:00 25.09240 55.50517 1757 ft 240 kts 121°
2026-05-08 17:01 25.08497 55.52199 1758 ft 241 kts 101°
2026-05-08 17:01 25.08553 55.54012 1766 ft 234 kts 68°
2026-05-08 17:01 25.09363 55.55365 1771 ft 197 kts 35°
2026-05-08 17:01 25.10399 55.56245 1781 ft 186 kts 32°
2026-05-08 17:02 25.11527 55.56831 1775 ft 176 kts
2026-05-08 17:02 25.12668 55.56556 1776 ft 163 kts 333°
2026-05-08 17:02 25.13686 55.56041 1771 ft 160 kts 328°
2026-05-08 17:02 25.14581 55.55310 1773 ft 158 kts 312°
2026-05-08 17:03 25.15277 55.54392 1773 ft 157 kts 304°
2026-05-08 17:03 25.15890 55.53376 1768 ft 157 kts 301°
2026-05-08 17:03 25.16466 55.52359 1772 ft 157 kts 301°
2026-05-08 17:03 25.17024 55.51353 1743 ft 149 kts 300°
2026-05-08 17:04 25.17550 55.50403 1747 ft 144 kts 301°
2026-05-08 17:04 25.18067 55.49468 1747 ft 144 kts 301°
2026-05-08 17:04 25.18571 55.48558 1744 ft 138 kts 301°
2026-05-08 17:04 25.19057 55.47676 1665 ft 140 kts 301°
2026-05-08 17:05 25.19562 55.46768 1516 ft 135 kts 301°
2026-05-08 17:05 25.20043 55.45897 1362 ft 130 kts 300°
2026-05-08 17:05 25.20495 55.45067 1203 ft 127 kts 300°
2026-05-08 17:05 25.20958 55.44249 1010 ft 127 kts 301°
2026-05-08 17:06 25.21430 55.43411 850 ft 128 kts 300°
2026-05-08 17:06 25.21879 55.42572 740 ft 129 kts 301°
2026-05-08 17:06 25.22345 55.41730 580 ft 130 kts 298°
2026-05-08 17:06 25.22817 55.40856 359 ft 131 kts 299°
2026-05-08 17:07 25.23296 55.40015 207 ft 128 kts 300°
2026-05-08 17:07 25.23753 55.39197 43 ft 122 kts 297°
2026-05-08 17:07 25.24126 55.38512 17 ft 78 kts 301°
2026-05-08 17:07 25.24309 55.38191 14 ft 21 kts 301°
2026-05-08 17:08 25.24406 55.38017 12 ft 32 kts 301°
2026-05-08 17:08 25.24525 55.37804 12 ft 32 kts 301°
2026-05-08 17:08 25.24642 55.37592 12 ft 33 kts 301°
2026-05-08 17:08 25.24748 55.37373 10 ft 33 kts 290°
2026-05-08 17:09 25.24782 55.37171 10 ft 19 kts 271°
2026-05-08 17:09 25.24782 55.37151 10 ft 0 kts 271°
2026-05-08 17:10 25.24784 55.37120 9 ft 13 kts 273°
2026-05-08 17:10 25.24787 55.37017 9 ft 11 kts 271°
2026-05-08 17:10 25.24759 55.36949 9 ft 11 kts 223°
2026-05-08 17:10 25.24716 55.36921 9 ft 1 kts 207°
2026-05-08 17:11 25.24698 55.36910 9 ft 5 kts 207°
2026-05-08 17:11 25.24658 55.36885 9 ft 8 kts 212°
2026-05-08 17:11 25.24600 55.36846 11 ft 11 kts 211°
2026-05-08 17:11 25.24525 55.36794 11 ft 14 kts 212°
2026-05-08 17:12 25.24437 55.36729 9 ft 16 kts 222°
2026-05-08 17:12 25.24379 55.36614 9 ft 18 kts 255°
2026-05-08 17:12 25.24378 55.36498 10 ft 8 kts 282°
2026-05-08 17:12 25.24405 55.36431 9 ft 10 kts 309°
2026-05-08 17:13 25.24445 55.36359 9 ft 12 kts 300°
2026-05-08 17:13 25.24484 55.36284 9 ft 0 kts 301°
2026-05-08 17:13 25.24485 55.36283 9 ft 2 kts 301°
2026-05-08 17:13 25.24500 55.36258 9 ft 6 kts 302°
2026-05-08 17:14 25.24539 55.36185 10 ft 15 kts 300°
2026-05-08 17:14 25.24603 55.36072 9 ft 19 kts 301°
2026-05-08 17:14 25.24678 55.35938 9 ft 22 kts 301°
2026-05-08 17:14 25.24755 55.35798 10 ft 20 kts 303°
2026-05-08 17:15 25.24813 55.35699 10 ft 14 kts 320°
2026-05-08 17:15 25.24867 55.35714 11 ft 8 kts 28°
2026-05-08 17:15 25.24913 55.35745 9 ft 9 kts 31°
2026-05-08 17:15 25.24955 55.35773 11 ft 5 kts 31°
2026-05-08 17:16 25.24962 55.35778 10 ft 0 kts 32°